Meteo pe oră la Almegijar

Astăzi, 25 Ianuarie, Luni

Timp Temperatura Precipitaţii Vânt Presiune Umiditate
00:00 +7°C° 0 mm 4 m/s 681 mmHg 66%
01:00 +7°C° 0 mm 4 m/s 681 mmHg 69%
02:00 +7°C° 0 mm 4 m/s 681 mmHg 73%
03:00 +7°C° 0 mm 4 m/s 681 mmHg 76%
04:00 +7°C° 0 mm 4 m/s 681 mmHg 79%
05:00 +7°C° 0 mm 4 m/s 680 mmHg 81%
06:00 +7°C° 0 mm 4 m/s 680 mmHg 84%
07:00 +8°C° 0 mm 4 m/s 681 mmHg 82%
08:00 +8°C° 0 mm 4 m/s 681 mmHg 80%
09:00 +10°C° 0 mm 4 m/s 681 mmHg 79%
10:00 +10°C° 0.1 mm 4 m/s 681 mmHg 79%
11:00 +10°C° 0.1 mm 5 m/s 681 mmHg 79%
12:00 +10°C° 0.1 mm 5 m/s 681 mmHg 79%
13:00 +10°C° 0.2 mm 5 m/s 681 mmHg 81%
14:00 +10°C° 0.2 mm 6 m/s 681 mmHg 84%
15:00 +10°C° 0.2 mm 6 m/s 680 mmHg 86%
16:00 +10°C° 0.1 mm 6 m/s 681 mmHg 87%
17:00 +9°C° 0.1 mm 6 m/s 681 mmHg 89%
18:00 +9°C° 0.1 mm 6 m/s 681 mmHg 91%
19:00 +9°C° 0 mm 6 m/s 681 mmHg 91%
20:00 +9°C° 0 mm 5 m/s 682 mmHg 90%
21:00 +9°C° 0 mm 5 m/s 682 mmHg 90%
22:00 +9°C° 0 mm 5 m/s 683 mmHg 89%
23:00 +9°C° 0 mm 5 m/s 683 mmHg 88%

Mâine, 26 Ianuarie, Marţi

Timp Temperatura Precipitaţii Vânt Presiune Umiditate
00:00 +10°C° 0 mm 4 m/s 683 mmHg 87%
01:00 +10°C° 0 mm 4 m/s 683 mmHg 86%
02:00 +10°C° 0 mm 4 m/s 683 mmHg 86%
03:00 +10°C° 0 mm 4 m/s 683 mmHg 85%
04:00 +10°C° 0 mm 4 m/s 684 mmHg 85%
05:00 +10°C° 0 mm 4 m/s 684 mmHg 85%
06:00 +10°C° 0 mm 4 m/s 685 mmHg 85%
07:00 +10°C° 0 mm 3 m/s 685 mmHg 83%
08:00 +11°C° 0 mm 3 m/s 685 mmHg 81%
09:00 +12°C° 0 mm 2 m/s 686 mmHg 79%
10:00 +13°C° 0 mm 2 m/s 686 mmHg 75%
11:00 +14°C° 0 mm 2 m/s 687 mmHg 72%
12:00 +15°C° 0 mm 2 m/s 687 mmHg 68%
13:00 +15°C° 0 mm 2 m/s 686 mmHg 70%
14:00 +15°C° 0 mm 2 m/s 686 mmHg 73%
15:00 +14°C° 0 mm 2 m/s 686 mmHg 75%
16:00 +13°C° 0 mm 2 m/s 686 mmHg 78%
17:00 +13°C° 0 mm 2 m/s 686 mmHg 81%
18:00 +12°C° 0 mm 2 m/s 686 mmHg 85%
19:00 +12°C° 0 mm 2 m/s 686 mmHg 84%
20:00 +12°C° 0 mm 2 m/s 686 mmHg 83%
21:00 +12°C° 0 mm 2 m/s 687 mmHg 82%
22:00 +10°C° 0 mm 2 m/s 686 mmHg 83%
23:00 +10°C° 0 mm 2 m/s 686 mmHg 84%

Poimâine, 27 Ianuarie, Miercuri

Timp Temperatura Precipitaţii Vânt Presiune Umiditate
00:00 +10°C° 0 mm 2 m/s 686 mmHg 84%
01:00 +10°C° 0 mm 2 m/s 686 mmHg 85%
02:00 +10°C° 0 mm 2 m/s 686 mmHg 86%
03:00 +10°C° 0 mm 2 m/s 685 mmHg 86%
04:00 +10°C° 0 mm 2 m/s 685 mmHg 86%
05:00 +9°C° 0 mm 2 m/s 685 mmHg 86%
06:00 +10°C° 0 mm 1 m/s 685 mmHg 86%
07:00 +11°C° 0 mm 1 m/s 686 mmHg 84%
08:00 +12°C° 0 mm 2 m/s 686 mmHg 82%
09:00 +13°C° 0 mm 2 m/s 687 mmHg 81%
10:00 +14°C° 0 mm 1 m/s 687 mmHg 76%
11:00 +15°C° 0 mm 1 m/s 687 mmHg 71%
12:00 +16°C° 0 mm 1 m/s 688 mmHg 66%
13:00 +16°C° 0 mm 1 m/s 687 mmHg 66%
14:00 +18°C° 0 mm 1 m/s 687 mmHg 66%
15:00 +18°C° 0 mm 1 m/s 686 mmHg 67%
16:00 +15°C° 0 mm 1 m/s 686 mmHg 72%
17:00 +14°C° 0 mm 1 m/s 686 mmHg 78%
18:00 +13°C° 0 mm 1 m/s 686 mmHg 84%
19:00 +12°C° 0 mm 1 m/s 687 mmHg 81%
20:00 +12°C° 0 mm 1 m/s 687 mmHg 78%
21:00 +12°C° 0 mm 1 m/s 687 mmHg 75%
22:00 +12°C° 0 mm 1 m/s 687 mmHg 73%
23:00 +11°C° 0 mm 1 m/s 687 mmHg 72%

28 Ianuarie, Joi

Timp Temperatura Precipitaţii Vânt Presiune Umiditate
00:00 +11°C° 0 mm 1 m/s 687 mmHg 70%
01:00 +11°C° 0 mm 1 m/s 687 mmHg 69%
02:00 +11°C° 0 mm 1 m/s 686 mmHg 68%
03:00 +11°C° 0 mm 1 m/s 686 mmHg 67%
04:00 +10°C° 0 mm 1 m/s 686 mmHg 64%
05:00 +10°C° 0 mm 1 m/s 686 mmHg 62%
06:00 +10°C° 0 mm 1 m/s 686 mmHg 60%
07:00 +11°C° 0 mm 0 m/s 686 mmHg 58%
08:00 +12°C° 0 mm 0 m/s 687 mmHg 56%
09:00 +14°C° 0 mm 0 m/s 688 mmHg 53%
10:00 +15°C° 0 mm 0 m/s 688 mmHg 50%
11:00 +18°C° 0 mm 1 m/s 688 mmHg 47%
12:00 +19°C° 0 mm 1 m/s 688 mmHg 44%
13:00 +19°C° 0 mm 1 m/s 688 mmHg 46%
14:00 +19°C° 0 mm 1 m/s 687 mmHg 49%
15:00 +19°C° 0 mm 1 m/s 687 mmHg 51%
16:00 +18°C° 0 mm 1 m/s 687 mmHg 58%
17:00 +14°C° 0 mm 0 m/s 686 mmHg 64%
18:00 +12°C° 0 mm 0 m/s 686 mmHg 71%
19:00 +12°C° 0 mm 0 m/s 686 mmHg 69%
20:00 +12°C° 0 mm 0 m/s 686 mmHg 67%
21:00 +12°C° 0 mm 0 m/s 686 mmHg 65%
22:00 +12°C° 0 mm 0 m/s 686 mmHg 65%
23:00 +12°C° 0 mm 0 m/s 686 mmHg 64%

29 Ianuarie, Vineri

Timp Temperatura Precipitaţii Vânt Presiune Umiditate
00:00 +11°C° 0 mm 0 m/s 686 mmHg 63%
01:00 +11°C° 0 mm 0 m/s 685 mmHg 63%
02:00 +12°C° 0 mm 1 m/s 685 mmHg 62%
03:00 +12°C° 0 mm 1 m/s 684 mmHg 62%
04:00 +12°C° 0 mm 1 m/s 684 mmHg 60%
05:00 +12°C° 0 mm 1 m/s 684 mmHg 58%
06:00 +11°C° 0 mm 1 m/s 684 mmHg 57%
07:00 +13°C° 0 mm 1 m/s 684 mmHg 55%
08:00 +14°C° 0 mm 1 m/s 684 mmHg 53%
09:00 +16°C° 0 mm 1 m/s 685 mmHg 51%
10:00 +17°C° 0 mm 2 m/s 685 mmHg 46%
11:00 +18°C° 0 mm 2 m/s 685 mmHg 41%
12:00 +19°C° 0 mm 2 m/s 685 mmHg 36%
13:00 +19°C° 0 mm 3 m/s 685 mmHg 38%
14:00 +19°C° 0 mm 3 m/s 684 mmHg 40%
15:00 +19°C° 0 mm 3 m/s 684 mmHg 42%
16:00 +17°C° 0 mm 3 m/s 683 mmHg 50%
17:00 +14°C° 0 mm 3 m/s 683 mmHg 58%
18:00 +12°C° 0 mm 3 m/s 682 mmHg 66%
19:00 +12°C° 0 mm 3 m/s 683 mmHg 67%
20:00 +12°C° 0 mm 3 m/s 683 mmHg 68%
21:00 +11°C° 0 mm 4 m/s 683 mmHg 70%
22:00 +11°C° 0 mm 4 m/s 682 mmHg 70%
23:00 +11°C° 0 mm 4 m/s 682 mmHg 70%

30 Ianuarie, Sâmbătă

Timp Temperatura Precipitaţii Vânt Presiune Umiditate
00:00 +11°C° 0 mm 4 m/s 682 mmHg 71%
01:00 +9°C° 0 mm 5 m/s 682 mmHg 68%
02:00 +9°C° 0 mm 5 m/s 681 mmHg 66%
03:00 +9°C° 0 mm 5 m/s 680 mmHg 63%
04:00 +8°C° 0 mm 5 m/s 680 mmHg 65%
05:00 +8°C° 0 mm 5 m/s 679 mmHg 67%
06:00 +8°C° 0 mm 5 m/s 679 mmHg 69%
07:00 +8°C° 0.1 mm 6 m/s 679 mmHg 74%
08:00 +8°C° 0.1 mm 6 m/s 679 mmHg 79%
09:00 +9°C° 0.1 mm 7 m/s 679 mmHg 84%
10:00 +9°C° 0.4 mm 7 m/s 679 mmHg 85%
11:00 +9°C° 0.4 mm 8 m/s 678 mmHg 86%
12:00 +9°C° 0.4 mm 8 m/s 678 mmHg 87%
13:00 +9°C° 0.2 mm 8 m/s 678 mmHg 86%
14:00 +9°C° 0.2 mm 8 m/s 678 mmHg 84%
15:00 +9°C° 0.2 mm 8 m/s 678 mmHg 83%
16:00 +9°C° 0 mm 8 m/s 678 mmHg 82%
17:00 +8°C° 0 mm 7 m/s 679 mmHg 82%
18:00 +6°C° 0 mm 7 m/s 679 mmHg 81%
19:00 +7°C° 0 mm 6 m/s 680 mmHg 83%
20:00 +7°C° 0 mm 5 m/s 681 mmHg 84%
21:00 +7°C° 0 mm 5 m/s 681 mmHg 85%
22:00 +7°C° 0 mm 5 m/s 682 mmHg 81%
23:00 +6°C° 0 mm 4 m/s 682 mmHg 76%
Arată mai mult

Formular de consimțământ

Meteoprog și furnizorii noștri de servicii pot stoca și accesa date personale, precum cookies, identificatori de dispozitiv sau alte tehnologii similare pe dispozitivul dumneavoastră și procesa astfel de date pentru a personaliza conținutul și reclamele, dar și pentru a oferi caracteristici de social media și pentru a analiza traficul.

  • Stocarea și/sau accesarea informațiilor pe dispozitivul dumneavoastră

    Cookies, identificatori de dispozitiv sau alte informații pot fi stocate sau accesate pe dispozitiv în scopurile indicate mai sus.

  • Reclame și conținut personalizat, evaluarea reclamelor și a conținutului, informații despre audiențe și dezvoltarea produselor

    Reclamele și conținutul pot fi personalizate pe baza unui profil. Pot fi adăugate date suplimentare pentru a personaliza mai bine reclamele și conținutul. Performanța reclamelor și conținutului poate fi măsurată. Pot fi obținute informații despre utilizatorii care au văzut reclamele și conținutul. Aceste date pot fi utilizate pentru a dezvolta sau îmbunătăți experiența utilizatorilor, sistemele și software-ul.

Dând clic pe ‘Sunt de acord’, permiteți utilizarea cookie-urilor menționate, a identificatorilor de dispozitiv, balizelor web sau altor tehnologii similare. Setările pot fi modificate din browser-ul dispozitivului dumneavoastră.

În anumite scopuri, interesele legitime pot prima asupra consimțământului. Puteți citi mai multe informații în acest sens în Politica privind Confidențialitatea Datelor și Cookie.